sat.trackr.live / text

‹ back to catalog

STARLINK-11177 [DTC]

NORAD 60118 · 2024-118F

PAYLOAD ACTIVE UNKNOWN

§ Identity

Operator
Country
US
Launch date
2024-06-24
Launch site
AFWTR
Launch vehicle
Mass (kg)
RCS (m²)

Purposes: comms

External: N2YO · Heavens-Above · Gunter

§ Orbital elements

Epoch: 2026-05-25T03:52:25.112064Z

Period
91.74 min
Inclination
53.1590°
Eccentricity
0.0001069
Mean motion
15.69705804 rev/d
Perigee alt
359.0 km
Apogee alt
360.5 km
Semi-major
6,737.9 km
B*
5.7194e-6
RAAN
204.3143°
Arg perigee
75.9774°
Mean anomaly
284.1362°
Rev number
11,000

§ Raw data

STARLINK-11177 [DTC]1 60118U 24118F   26145.16140176  .00000104  00000+0  57194-5 0  99912 60118  53.1590 204.3143 0001069  75.9774 284.1362 15.69705804110006

JSON: /api/v1/satellites/60118 · /tle

For live sub-satellite position, see the globe view (requires WebGL).

§ Visibility from observer

Set your observer location to see the next 7 days of passes ≥ 10°. The values pass through the URL so the page stays shareable.

No JS? Fill the form by hand. The geolocation button needs JavaScript.